Weather in Ruzaevka

Kazakhstan     52°49′18″N   66°57′05″E
temp.,
°C
wind,
m/s
gust,
m/s
humid.,
%
clouds,
%
prec.,
mm/h
press.,
hPa
HPBL,
m
22 april, thu
thu2200:00+5ene33655 0.0 103434
03:00+4e33725 0.0 103527
06:00+3se22725 0.0 103711
09:00+6e226174 0.0 1039190
12:00+10ese44475 0.0 10381100
15:00+12se324015 0.0 10381648
18:00+12se4336100 0.0 10381657
21:00+9se5948100 0.0 1039247
23 april, fri
fri2300:00+6se6124945 0.0 1039323
03:00+4sse61251100 0.0 1039345
06:00+2se5115979 0.0 1040270
09:00+5sse61051100 0.0 1040426
12:00+9sse7835100 0.0 10391060
15:00+11sse7829100 0.0 10371430
18:00+11sse6728100 0.0 10361435
21:00+8se4941100 0.0 1036204
24 april, sat
sat2400:00+6se61247100 0.0 1034310
03:00+6se61445100 0.0 1033406
06:00+5se61250100 0.0 1032341
09:00+6se61148100 0.0 1031397
12:00+9sse7937100 0.0 1029789
15:00+11sse81028100 0.0 10271445
18:00+9sse61138100 0.1 10261182
21:00+8se51140100 0.0 1024377
25 april, sun
sun2500:00+7se61347100 0.0 1023366
03:00+7se61249100 0.0 1021385
06:00+6se6135277 0.0 1019362
09:00+8se7124398 0.0 1018527
12:00+12sse7932100 0.0 1017961
15:00+15ssw683098 0.0 10152007
18:00+15wsw663866 0.0 10151814
21:00+10w59555 0.0 1018300
26 april, mon
mon2600:00+8wsw37663 0.0 1019129
03:00+7sw36702 0.0 102096
06:00+6w3887100 0.0 1021152
09:00+8w3570100 0.0 1023235
12:00+13wsw4542100 0.0 10231284
15:00+16wsw5730100 0.0 10231689
18:00+15sw5746100 0.0 1022880
21:00+13sse3458100 0.0 102181